Wind_Speed
46 47 53 51 48 50 54 55 55 55 53 52 51 51 52 52 52 52 53 52 52 52 52 52 53 53 52 52 52 52 51 51 50 49 49 50 50 50 50 50 50 51 49 48
48 52 50 51 54 56 59 59 59 59 57 55 54 54 55 57 56 56 56 56 57 58 59 59 59 59 59 59 59 58 58 57 56 56 55 55 54 54 55 56 57 56 55 54
50 53 52 54 57 59 60 61 64 63 62 60 60 58 58 59 59 60 61 62 62 63 63 64 64 65 65 65 65 66 65 64 64 62 61 61 61 61 61 61 61 61 61 61
53 55 55 56 60 62 63 65 66 67 67 66 66 64 62 63 64 64 65 66 67 68 69 69 70 69 69 70 71 71 71 70 70 70 69 69 69 68 68 68 68 68 68 68
55 57 59 59 59 61 65 68 69 70 70 70 69 72 65 68 68 70 71 72 72 73 74 75 75 75 75 76 76 76 77 77 76 76 76 76 76 76 75 74 75 75 75 75
57 59 60 61 60 60 63 68 72 74 75 73 72 76 70 73 73 75 77 79 80 81 81 81 81 82 83 83 83 83 83 83 83 82 82 82 82 82 82 82 82 82 82 82
58 59 61 62 63 62 63 67 71 74 78 79 80 82 76 78 80 82 83 84 85 85 85 86 87 87 88 89 90 90 91 91 90 90 90 90 89 89 88 88 88 89 89 88
60 62 63 64 65 66 66 67 70 71 74 78 82 83 82 85 86 88 90 91 91 91 91 92 92 92 93 94 94 95 96 97 98 99 98 98 97 96 95 95 95 95 95 95
63 63 65 66 67 69 69 71 72 74 74 76 75 75 77 80 86 89 92 94 95 96 96 97 97 97 98 98 99 100 101 102 102 103 104 104 104 103 103 103 102 102 102 102
65 67 68 68 70 71 72 74 76 78 79 80 78 79 77 80 84 85 87 88 89 91 92 94 96 98 99 101 103 105 106 108 109 110 111 112 112 111 110 109 108 107 107 108
66 68 69 71 72 74 76 77 79 83 83 84 84 83 83 86 89 92 93 94 94 95 97 98 99 100 101 102 103 104 105 106 107 109 110 112 113 114 115 116 117 117 116 115
69 71 73 74 75 76 79 80 83 86 86 89 91 89 91 94 96 97 98 99 101 102 104 105 106 107 108 109 110 110 111 112 113 114 115 115 116 117 118 118 117 116 116 116
71 72 75 76 78 80 82 84 87 89 91 91 95 93 95 97 98 99 100 101 103 104 105 106 108 109 110 111 112 113 114 115 116 117 119 121 122 123 123 122 122 122 122 121
75 76 78 79 80 82 83 86 88 90 92 93 94 96 97 98 99 101 103 105 106 107 109 110 111 112 113 114 115 116 117 119 121 123 124 126 127 128 130 130 130 128 127 127
82 83 84 85 87 88 90 91 93 95 96 98 100 102 104 106 107 109 111 113 114 115 115 116 118 119 121 122 124 126 127 129 131 133 135 137 138 140 140 139 140 140 139 137
83 84 87 88 90 91 93 95 98 100 103 105 107 109 112 113 116 118 120 123 124 126 128 129 131 133 134 135 137 138 140 140 141 142 142 143 144 146 147 148 149 149 149 149
90 92 93 94 97 99 101 104 106 109 111 114 116 119 121 124 126 128 131 132 134 135 135 134 132 132 131 131 132 134 135 136 137 139 141 142 143 144 145 147 148 149 150 152
98 100 103 104 105 107 109 111 114 117 120 122 124 127 128 128 128 127 127 127 127 128 129 130 130 132 132 132 132 133 134 135 136 138 140 143 144 146 148 149 150 151 152 151
104 106 108 110 111 113 114 115 116 117 117 119 121 122 123 124 126 127 126 127 128 128 128 128 129 130 130 130 131 132 133 133 134 135 136 137 138 139 141 143 145 147 150 153
101 103 106 108 109 110 110 112 114 116 116 121 122 123 125 125 125 126 126 126 126 126 126 125 125 125 125 125 124 124 124 124 124 124 125 126 127 128 130 131 132 134 135 138
100 104 105 107 109 110 112 114 117 118 119 121 121 122 123 124 125 126 128 127 125 123 121 119 118 118 117 116 115 115 115 115 115 116 117 117 118 118 120 122 124 127 128 129
102 103 105 107 110 110 112 113 115 115 117 117 118 119 120 120 120 117 117 117 116 115 113 111 111 111 111 109 108 108 109 109 107 107 106 106 106 106 107 109 112 113 116 118
99 100 101 102 104 106 109 112 114 116 114 112 111 110 109 110 108 108 107 107 107 106 106 106 105 105 106 104 102 100 99 99 98 99 99 98 98 99 100 100 102 104 106 107
93 96 99 103 107 107 105 105 104 104 103 102 101 101 99 98 98 98 99 99 98 98 98 97 97 96 96 96 96 95 93 92 93 94 95 95 95 95 94 95 96 97 98 101
95 98 99 97 95 95 94 94 94 92 92 91 91 90 90 90 90 90 91 90 90 89 90 90 91 91 92 93 93 92 91 92 92 93 94 94 93 93 93 93 94 94 95 95
90 89 89 89 87 86 85 84 84 83 83 81 81 82 81 79 80 81 82 83 84 86 87 88 88 89 90 90 90 89 89 89 89 90 91 92 92 93 93 93 94 93 94 94
Wind_Direction
228 228 230 232 235 235 233 231 230 231 231 234 233 232 232 233 233 235 237 239 241 243 245 247 247 247 247 249 250 251 251 249 249 249 250 251 252 252 253 253 254 254 255 255
227 230 232 233 233 234 234 234 233 233 234 236 237 235 236 237 237 238 240 242 243 244 245 246 248 249 250 251 251 252 252 253 253 253 253 253 253 253 253 254 255 255 255 254
229 232 233 234 234 236 235 236 236 237 235 235 239 238 238 239 241 243 243 243 245 246 248 249 250 250 252 252 253 253 254 255 255 255 255 256 256 255 255 256 256 256 256 255
232 234 234 236 236 236 237 238 239 240 240 239 241 242 242 243 245 246 247 248 249 249 249 248 249 250 251 253 255 256 257 257 257 257 256 256 256 257 257 257 258 258 257 257
234 235 237 238 239 239 240 241 241 242 242 243 244 246 243 247 248 248 250 251 252 252 252 253 253 253 254 254 255 254 255 256 257 258 258 259 259 258 258 258 259 258 259 259
238 240 241 242 243 243 244 244 244 243 245 246 246 248 248 249 249 251 253 253 254 255 255 255 255 255 256 256 256 256 257 257 257 257 257 258 259 259 260 260 260 260 260 260
239 240 243 244 244 245 245 246 246 247 248 248 247 250 251 249 251 253 253 254 255 256 257 259 260 259 259 259 259 258 258 259 259 258 257 257 257 258 258 258 259 260 260 261
241 241 242 244 247 247 247 247 248 248 248 249 249 251 253 253 253 253 255 256 257 257 258 258 259 260 261 262 263 263 263 263 263 262 261 260 259 259 259 259 258 258 259 259
243 243 245 246 247 249 249 250 251 252 251 251 251 252 251 254 255 256 257 257 257 258 260 261 262 263 263 264 264 265 265 265 265 265 265 265 264 263 263 263 262 262 262 262
246 246 247 248 250 251 252 252 253 254 254 254 254 254 255 255 256 258 258 258 259 260 260 260 260 261 262 263 263 264 264 264 265 265 265 265 265 265 264 263 263 262 262 262
249 250 250 251 252 252 254 255 256 256 257 257 256 256 256 256 256 257 258 259 259 260 260 261 261 262 262 262 263 263 263 263 264 265 266 266 266 265 265 264 263 263 262 262
252 252 252 253 253 254 255 256 257 258 258 259 258 257 258 257 257 258 259 260 260 260 260 260 260 261 261 262 263 264 264 264 264 264 265 265 266 266 266 265 264 263 262 262
253 254 255 256 256 257 258 258 259 260 261 261 262 263 261 262 262 263 262 262 262 262 262 262 262 262 262 262 263 263 264 264 265 265 265 265 265 264 264 264 265 265 265 264
254 255 256 257 258 259 260 262 263 263 264 264 265 265 265 264 264 264 265 264 265 265 265 265 264 264 264 264 264 265 265 265 266 266 266 267 266 266 266 265 264 263 263 263
254 255 257 258 260 260 261 262 263 264 265 266 266 267 267 268 268 268 268 268 268 267 267 268 268 268 267 267 267 267 267 267 266 265 265 264 264 264 264 264 265 265 264 263
257 257 258 259 260 261 262 262 263 263 264 265 266 267 268 268 269 269 269 270 270 271 270 270 270 269 269 268 268 267 266 266 265 265 264 263 263 263 263 262 262 262 263 263
259 260 260 260 260 261 262 262 263 265 266 267 268 269 269 270 270 270 270 270 271 272 271 271 271 270 269 268 267 267 266 266 265 265 264 264 264 263 263 262 262 261 260 260
261 262 263 264 265 265 266 267 268 269 269 270 271 271 272 272 272 272 272 272 272 272 272 271 271 271 270 270 269 269 268 267 266 265 264 263 262 262 261 261 261 261 261 261
262 264 265 266 267 268 269 269 270 271 272 272 273 273 274 274 275 275 274 273 272 272 272 272 272 272 271 270 270 270 269 267 267 266 266 265 264 263 263 262 261 260 260 260
263 265 266 267 268 270 272 273 273 273 274 273 275 276 276 275 275 276 276 277 277 277 276 276 275 274 272 271 270 270 269 268 268 267 267 266 265 264 263 262 261 260 259 258
266 268 269 270 272 273 273 273 275 276 276 275 275 276 277 278 278 279 280 279 278 277 277 276 276 275 275 274 274 273 273 272 271 271 269 268 267 265 264 263 262 260 259 258
268 269 269 271 273 274 274 275 275 275 275 276 277 279 279 280 279 279 278 278 279 279 278 277 277 277 276 276 275 275 274 274 273 271 270 269 268 267 265 264 263 262 261 260
273 273 274 274 275 275 275 276 277 279 281 282 281 280 280 279 279 279 279 279 278 278 278 278 278 278 277 277 275 274 273 273 272 271 270 269 267 266 265 263 263 262 262 261
275 275 276 276 275 277 279 281 282 282 281 281 281 281 281 281 281 280 280 280 280 280 280 279 278 278 277 276 276 275 275 273 272 271 270 269 268 267 266 264 263 261 260 259
277 276 276 279 282 283 283 283 283 283 283 284 283 283 283 283 283 282 281 282 281 281 280 280 279 279 278 277 276 275 274 273 273 272 271 270 269 268 267 266 264 263 261 260
278 281 283 284 285 285 286 287 287 286 286 285 285 285 285 284 285 285 285 284 284 283 283 282 281 280 279 278 277 277 276 274 272 271 270 269 268 268 267 266 265 263 262 261
Height
10608 10611 10611 10619 10628 10632 10633 10633 10636 10638 10641 10643 10650 10655 10657 10658 10660 10661 10663 10665 10668 10670 10671 10673 10676 10678 10679 10681 10682 10683 10684 10686 10689 10691 10691 10692 10694 10696 10697 10698 10699 10699 10702 10704
10599 10598 10606 10613 10616 10618 10621 10624 10624 10630 10631 10634 10639 10642 10645 10646 10648 10650 10652 10654 10655 10658 10660 10661 10663 10664 10667 10669 10671 10671 10672 10674 10677 10678 10679 10680 10681 10683 10684 10685 10687 10689 10692 10693
10588 10589 10596 10600 10605 10607 10610 10613 10611 10618 10621 10623 10623 10630 10634 10635 10636 10638 10639 10641 10643 10645 10647 10648 10649 10651 10653 10655 10656 10658 10659 10661 10663 10665 10666 10667 10668 10669 10671 10672 10674 10675 10676 10678
10577 10580 10583 10588 10592 10596 10599 10600 10601 10603 10607 10612 10612 10617 10621 10623 10625 10625 10626 10627 10628 10630 10632 10634 10634 10635 10637 10639 10640 10642 10643 10645 10647 10649 10650 10651 10652 10654 10656 10657 10659 10660 10661 10663
10566 10568 10571 10576 10579 10585 10588 10589 10591 10590 10593 10597 10602 10600 10613 10609 10612 10611 10612 10612 10613 10613 10614 10615 10617 10618 10621 10621 10622 10624 10626 10627 10629 10631 10632 10634 10634 10636 10638 10641 10642 10643 10644 10645
10555 10557 10560 10563 10568 10572 10575 10576 10576 10578 10578 10585 10587 10583 10600 10597 10595 10594 10595 10594 10594 10594 10595 10597 10599 10600 10602 10603 10604 10605 10606 10607 10609 10611 10613 10614 10615 10617 10619 10622 10623 10623 10624 10626
10541 10545 10546 10548 10551 10555 10558 10559 10560 10562 10564 10570 10570 10566 10584 10580 10577 10575 10575 10576 10575 10576 10577 10578 10580 10581 10582 10582 10583 10585 10585 10586 10587 10589 10591 10593 10594 10596 10598 10600 10602 10602 10603 10604
10527 10530 10532 10533 10535 10539 10541 10543 10543 10545 10547 10549 10551 10555 10564 10559 10558 10557 10554 10555 10556 10557 10558 10558 10559 10559 10560 10560 10561 10560 10562 10562 10563 10564 10566 10568 10570 10572 10575 10577 10579 10580 10580 10582
10510 10514 10515 10518 10520 10522 10525 10525 10525 10525 10528 10528 10533 10539 10541 10542 10536 10535 10534 10535 10536 10536 10537 10537 10537 10537 10537 10537 10536 10537 10537 10537 10538 10538 10539 10540 10542 10545 10548 10551 10553 10555 10555 10556
10495 10497 10500 10502 10503 10505 10505 10506 10507 10505 10507 10509 10515 10518 10524 10519 10515 10513 10512 10512 10513 10513 10514 10514 10514 10513 10513 10512 10511 10510 10509 10509 10509 10508 10509 10509 10511 10514 10517 10520 10523 10526 10527 10527
10478 10481 10482 10484 10486 10485 10486 10486 10485 10482 10487 10488 10491 10496 10499 10497 10492 10490 10489 10489 10490 10490 10489 10488 10488 10487 10486 10486 10484 10483 10482 10481 10480 10479 10478 10477 10478 10480 10483 10486 10489 10492 10496 10498
10461 10463 10463 10464 10465 10465 10464 10464 10462 10460 10465 10463 10462 10473 10471 10467 10466 10466 10467 10465 10464 10462 10462 10461 10460 10459 10458 10457 10455 10454 10452 10451 10450 10450 10448 10447 10446 10446 10446 10448 10452 10457 10460 10464
10443 10445 10444 10444 10445 10445 10444 10443 10441 10440 10440 10442 10435 10445 10442 10440 10439 10439 10438 10436 10435 10433 10433 10432 10430 10428 10427 10426 10425 10424 10422 10420 10417 10417 10415 10414 10414 10414 10413 10413 10415 10417 10420 10425
10424 10426 10424 10424 10425 10423 10423 10420 10418 10416 10414 10413 10413 10412 10412 10413 10411 10409 10407 10405 10404 10402 10401 10399 10399 10397 10396 10394 10393 10392 10390 10388 10386 10384 10382 10379 10378 10376 10374 10374 10377 10380 10383 10385
10405 10405 10403 10404 10404 10403 10401 10399 10396 10392 10389 10388 10386 10381 10380 10379 10378 10377 10374 10371 10369 10368 10366 10364 10362 10361 10360 10358 10356 10354 10352 10349 10347 10344 10341 10339 10338 10337 10336 10335 10334 10334 10338 10342
10384 10385 10383 10382 10381 10380 10378 10375 10371 10367 10363 10360 10356 10353 10348 10348 10345 10343 10341 10335 10332 10330 10327 10325 10321 10318 10315 10313 10310 10307 10305 10304 10301 10298 10295 10294 10293 10293 10293 10293 10294 10294 10293 10295
10360 10359 10359 10360 10356 10354 10353 10348 10344 10339 10334 10330 10326 10320 10316 10311 10308 10306 10301 10299 10293 10288 10284 10279 10275 10272 10270 10269 10265 10259 10259 10258 10255 10252 10249 10247 10246 10244 10244 10244 10245 10247 10250 10251
10336 10333 10331 10330 10330 10327 10323 10320 10314 10308 10303 10298 10293 10285 10280 10273 10267 10265 10260 10256 10253 10248 10241 10235 10231 10225 10222 10220 10217 10212 10210 10208 10205 10203 10200 10198 10197 10196 10195 10196 10198 10199 10201 10204
10310 10307 10303 10300 10299 10296 10294 10287 10281 10276 10273 10263 10254 10248 10242 10236 10229 10224 10219 10212 10208 10204 10199 10193 10187 10181 10174 10172 10168 10162 10158 10157 10155 10152 10150 10148 10149 10149 10147 10147 10148 10152 10154 10155
10282 10280 10276 10272 10269 10267 10263 10254 10247 10243 10241 10225 10221 10215 10206 10197 10192 10181 10175 10168 10163 10157 10152 10147 10140 10133 10128 10122 10120 10117 10113 10110 10107 10106 10103 10100 10101 10102 10100 10100 10100 10100 10104 10108
10258 10253 10249 10244 10239 10238 10230 10222 10215 10209 10202 10193 10185 10178 10169 10161 10152 10145 10132 10123 10119 10113 10106 10103 10097 10090 10083 10079 10077 10072 10068 10067 10065 10062 10058 10055 10054 10055 10054 10054 10054 10055 10058 10063
10231 10227 10223 10217 10210 10207 10197 10190 10182 10173 10165 10160 10152 10145 10135 10124 10113 10106 10096 10086 10078 10071 10066 10061 10056 10048 10042 10040 10037 10032 10027 10024 10022 10018 10015 10013 10012 10011 10012 10013 10010 10012 10016 10019
10202 10198 10194 10188 10178 10170 10164 10156 10148 10139 10133 10125 10115 10106 10099 10087 10078 10069 10061 10052 10045 10038 10031 10023 10017 10011 10004 10000 9997 9994 9989 9987 9983 9979 9975 9974 9973 9972 9971 9973 9974 9976 9978 9981
10174 10169 10163 10155 10144 10138 10133 10126 10117 10108 10098 10089 10080 10070 10063 10055 10045 10035 10025 10018 10011 10003 9998 9990 9982 9976 9970 9966 9959 9956 9955 9952 9947 9943 9939 9936 9936 9936 9937 9937 9937 9939 9940 9942
10145 10136 10129 10123 10119 10111 10104 10095 10085 10076 10067 10057 10048 10040 10030 10023 10012 10005 9995 9988 9980 9972 9964 9956 9950 9944 9937 9931 9925 9923 9921 9917 9913 9908 9905 9903 9902 9901 9901 9901 9900 9902 9903 9906
10115 10110 10105 10097 10090 10082 10075 10066 10055 10045 10037 10030 10021 10010 10003 9997 9986 9977 9967 9960 9950 9941 9933 9925 9918 9912 9904 9897 9892 9890 9886 9883 9879 9876 9873 9871 9869 9867 9866 9865 9865 9867 9868 9870